User: anonymous   Login
Location: Cronhütte
(48.9135°N, 9.6869°E)
Time: 13:10:53
(UTC+00:00)
Language:

ALOS - Orbit

View from above orbital plane
View from above orbital plane
View from above satellite
View from above satellite

Ground track
Ground track

The orbit data is extracted from the following two-line orbital elements,

1 28931U 06002A   24203.14925219  .00003768  00000-0  69577-3 0  9996
2 28931  98.0378 155.4899 0002380  69.8128 290.3332 14.66025342986321
Epoch (UTC): 21 July 2024 03:34:55
Eccentricity: 0.0002380
inclination: 98.0378°
perigee height: 672 km
apogee height: 675 km
right ascension of ascending node: 155.4899°
argument of perigee: 69.8128°
revolutions per day: 14.66025342
mean anomaly at epoch: 290.3332°
orbit number at epoch: 98632

The dashed part of the orbit path shows where the satellite is in the earth's shadow,  

DLR